Weather History for KSSF - February, 2015

Change the Weather History Date:

Tuesday, February 24, 2015

  Actual Average Record
Temperature  
Mean Temperature 38 °F -  
Max Temperature 43 °F 65 °F 87 °F (2011)
Min Temperature 32 °F 46 °F 28 °F (2003)
Degree Days  
Heating Degree Days 28    
Moisture  
Dew Point 29 °F    
Average Humidity 79    
Maximum Humidity 89    
Minimum Humidity 60    
Precipitation  
Precipitation 0.00 in - - ()
Sea Level Pressure  
Sea Level Pressure 30.25 in    
Wind  
Wind Speed 7 mph (NNE)    
Max Wind Speed 10 mph    
Max Gust Speed -    
Visibility 9 miles    
Events      
Averages and records for this station are not official NWS values.
T = Trace of Precipitation, MM = Missing Value Source: NWS Daily Summary

Daily Weather History Graph

Daily Weather History Graph

Search for Another Location

Airport or City:

Trip Planner

Search our weather history database for the weather conditions in past years. The results will help you decide how hot, cold, wet, or windy it might be!

Date:

Astronomy

Feb. 24, 2015 Rise Set
Actual Time 7:04 AM CST 6:29 PM CST
Civil Twilight 6:40 AM CST 6:53 PM CST
Nautical Twilight 6:13 AM CST 7:21 PM CST
Astronomical Twilight 5:45 AM CST 7:49 PM CST
Moon 11:09 AM CST (2/24) No Moon Set
Length of Visible Light 12h 13m
Length of Day
11h 25m
Waxing Crescent, 40% of the Moon is Illuminated
Feb 24
Waxing Crescent
Feb 25
First Quarter
Mar 5
Full
Mar 13
Last Quarter
Mar 20
New

Hourly Weather History & Observations

Time (CST) Temp. Windchill Dew Point Humidity Pressure Visibility Wind Dir Wind Speed Gust Speed Precip Events Conditions
12:53 AM 34.0 °F 26.0 °F 27.0 °F 75% 30.39 in 10.0 mi North 10.4 mph - N/A   Overcast
1:10 AM 34.0 °F 26.6 °F 27.0 °F 75% 30.35 in 10.0 mi North 9.2 mph - N/A   Overcast
1:36 AM 33.1 °F 26.9 °F 27.0 °F 78% 30.35 in 10.0 mi NNW 6.9 mph - N/A   Overcast
1:53 AM 33.1 °F 27.7 °F 27.0 °F 78% 30.38 in 10.0 mi NW 5.8 mph - N/A   Overcast
2:22 AM 33.1 °F 27.7 °F 28.0 °F 82% 30.33 in 9.0 mi NNW 5.8 mph - N/A   Overcast
2:43 AM 33.1 °F 27.7 °F 28.0 °F 82% 30.32 in 10.0 mi North 5.8 mph - N/A   Overcast
2:53 AM 33.1 °F 27.7 °F 28.0 °F 82% 30.35 in 10.0 mi NNW 5.8 mph - N/A   Overcast
3:17 AM 32.0 °F 24.8 °F 28.0 °F 85% 30.31 in 9.0 mi NNW 8.1 mph - N/A   Overcast
3:26 AM 32.0 °F 26.4 °F 28.0 °F 85% 30.31 in 10.0 mi NNW 5.8 mph - N/A   Overcast
3:48 AM 32.0 °F 25.6 °F 28.4 °F 87% 30.30 in 10.0 mi North 6.9 mph - N/A   Overcast
3:53 AM 32.0 °F 25.6 °F 28.9 °F 88% 30.32 in 10.0 mi North 6.9 mph - N/A   Overcast
4:53 AM 33.1 °F 27.7 °F 28.9 °F 85% 30.31 in 9.0 mi North 5.8 mph - N/A   Overcast
5:53 AM 32.0 °F 25.6 °F 28.9 °F 88% 30.31 in 8.0 mi North 6.9 mph - N/A   Overcast
6:36 AM 32.0 °F 25.6 °F 28.9 °F 88% 30.29 in 6.0 mi NNE 6.9 mph - N/A   Overcast
6:43 AM 32.0 °F 27.5 °F 28.9 °F 88% 30.29 in 6.0 mi NNE 4.6 mph - N/A   Overcast
6:53 AM 33.1 °F 27.7 °F 28.9 °F 85% 30.32 in 7.0 mi NE 5.8 mph - N/A   Overcast
7:05 AM 32.0 °F 27.5 °F 28.9 °F 88% 30.29 in 8.0 mi NNE 4.6 mph - N/A   Overcast
7:53 AM 33.1 °F 25.5 °F 28.9 °F 85% 30.32 in 8.0 mi North 9.2 mph - N/A   Overcast
8:06 AM 33.1 °F 26.9 °F 28.9 °F 85% 30.30 in 9.0 mi North 6.9 mph - N/A   Overcast
8:14 AM 33.1 °F 25.5 °F 28.9 °F 85% 30.30 in 10.0 mi North 9.2 mph - N/A   Overcast
8:38 AM 33.1 °F 24.9 °F 28.9 °F 85% 30.31 in 10.0 mi NNE 10.4 mph - N/A   Overcast
8:42 AM 34.0 °F 27.2 °F 28.9 °F 82% 30.30 in 10.0 mi North 8.1 mph - N/A   Overcast
8:53 AM 33.1 °F 26.9 °F 28.0 °F 82% 30.33 in 10.0 mi NNE 6.9 mph - N/A   Overcast
9:00 AM 34.0 °F 28.0 °F 28.9 °F 82% 30.30 in 10.0 mi NNE 6.9 mph - N/A   Overcast
9:28 AM 34.0 °F 28.0 °F 28.0 °F 79% 30.30 in 10.0 mi North 6.9 mph - N/A   Overcast
9:43 AM 35.1 °F 30.1 °F 28.9 °F 78% 30.31 in 10.0 mi North 5.8 mph - N/A   Overcast
9:53 AM 35.1 °F 28.6 °F 28.0 °F 76% 30.34 in 10.0 mi North 8.1 mph - N/A   Overcast
10:17 AM 35.1 °F 27.9 °F 28.9 °F 78% 30.30 in 10.0 mi North 9.2 mph - N/A   Overcast
10:45 AM 36.0 °F 30.3 °F 28.9 °F 76% 30.29 in 10.0 mi North 6.9 mph - N/A   Overcast
10:53 AM 36.0 °F 29.6 °F 28.9 °F 76% 30.32 in 10.0 mi North 8.1 mph - N/A   Overcast
11:07 AM 36.0 °F 29.6 °F 28.9 °F 76% 30.28 in 10.0 mi NNE 8.1 mph - N/A   Overcast
11:53 AM 37.9 °F 33.5 °F 28.9 °F 70% 30.28 in 10.0 mi NNE 5.8 mph - N/A   Overcast
12:53 PM 39.0 °F 34.0 °F 28.9 °F 67% 30.25 in 10.0 mi North 6.9 mph - N/A   Overcast
1:53 PM 39.9 °F 35.8 °F 28.9 °F 65% 30.20 in 10.0 mi North 5.8 mph - N/A   Overcast
2:53 PM 41.0 °F - 30.0 °F 65% 30.17 in 10.0 mi Calm Calm - N/A   Overcast
3:53 PM 43.0 °F 40.3 °F 30.0 °F 60% 30.11 in 10.0 mi East 4.6 mph - N/A   Overcast
4:53 PM 42.1 °F 39.2 °F 30.0 °F 62% 30.08 in 10.0 mi North 4.6 mph - N/A   Overcast
5:53 PM 41.0 °F 38.0 °F 30.9 °F 67% 30.07 in 10.0 mi East 4.6 mph - N/A   Overcast
6:53 PM 39.9 °F 35.1 °F 30.9 °F 70% 30.06 in 10.0 mi East 6.9 mph - N/A   Overcast
7:53 PM 39.0 °F 34.0 °F 30.9 °F 73% 30.04 in 10.0 mi ENE 6.9 mph - N/A   Overcast
8:53 PM 37.9 °F 31.5 °F 30.9 °F 76% 30.03 in 10.0 mi East 9.2 mph - N/A   Overcast
9:53 PM 37.9 °F 34.4 °F 32.0 °F 79% 30.02 in 10.0 mi East 4.6 mph - N/A   Overcast
10:53 PM 37.9 °F 34.4 °F 30.9 °F 76% 30.05 in 10.0 mi NNE 4.6 mph - N/A   Overcast
11:19 PM 37.0 °F 33.3 °F 32.0 °F 82% 30.02 in 8.0 mi NE 4.6 mph - N/A   Overcast
11:53 PM 36.0 °F 32.1 °F 33.1 °F 89% 30.02 in 3.0 mi ENE 4.6 mph - N/A   Overcast